CROCUBE (62394 NORAD) Tracking and Keplerian Element Data

This shows tracking and keplerian element data for the satellite.

Feedback or suggestion? Click here.




ElementValue
Catalog62394
NameCROCUBE
Epoch Orbit684
Epoch Day34.5293721
Epoch Year2025
RAAN123.6204
Inclination44.9928
Eccentricity0.0004765
Argument of Perigee340.7318
Mean Anonmoly19.3381
Mean Motion15.19907899
Decay Rate0.00022929
L11 62394U 24247T 25034.52937210 .00022929 00000+0 10577-2 0 9991
L22 62394 44.9928 123.6204 0004765 340.7318 19.3381 15.19907899 6849



Live tracking and technical data element details for CROCUBE (NORAD 62394). CROCUBE can be tracked NOW for your location showing map with azimuth and elevation plus other details from your city location.







IsCatalogInMostPopularTable: catalog: 62394, numindb: 16
Update: records affected: 1



GetName: 62394 CROCUBE

Hit Count: updated at: Sat, 24 May 2025 17:07:25 GMT